{"data":{"norad_id":59849,"intl_designator":"2024-097Q","name":"STARLINK-31895","alt_names":[],"object_type":"PAYLOAD","status":"ACTIVE","operator":null,"country":"US","launch_date":"2024-05-23","launch_site_code":"AFETR","launch_vehicle":null,"mission":null,"orbit_class":"UNKNOWN","rcs_meters":null,"size_class":null,"mass_kg":null,"dimensions":null,"purposes":["comms"],"wikipedia_slug":null,"has_3d_model":false,"image_url":null,"decayed_at":null,"tle_current":{"epoch":"2026-05-24T15:20:12.891840Z","epoch_age_seconds":105974,"freshness":"FRESH","line1":"1 59849U 24097Q   26144.63903810  .00004169  00000+0  16094-3 0  9996","line2":"2 59849  43.0013 205.3217 0001400 265.4036  94.6655 15.27578979113537","mean_motion":15.27578979,"eccentricity":0.00014,"inclination_deg":43.0013,"raan_deg":205.3217,"arg_perigee_deg":265.4036,"mean_anomaly_deg":94.6655,"bstar":0.00016094,"rev_number":11353,"period_min":94.266811719461,"perigee_km":482.0915868012,"apogee_km":484.01271976412,"semimajor_km":6861.1891532827,"source":"CELESTRAK","updated_at":"2026-05-25T13:38:19.088150Z"}}}